Bangkok (Don Mueang), Thailand

4:49 PM +07 on November 25, 2017 (GMT +0700)
Bangkok International

Weather History for VTBD - March, 2013

Change the Weather History Date:

Tuesday, March 26, 2013

  Actual Average Record
Temperature  
Mean Temperature 92 °F -  
Max Temperature 103 °F 94 °F 103 °F (2013)
Min Temperature 82 °F 78 °F 74 °F (2015)
Cooling Degree Days 28    
Growing Degree Days 42 (Base 50)    
Moisture  
Dew Point 70 °F    
Average Humidity 56    
Maximum Humidity 89    
Minimum Humidity 18    
Precipitation  
Precipitation 0.00 in 0.08 in - ()
Sea Level Pressure  
Sea Level Pressure 29.72 in    
Wind  
Wind Speed 5 mph ()    
Max Wind Speed 15 mph    
Max Gust Speed -    
Visibility 6.0 miles    
Events      
Averages and records for this station are not official NWS values.
T = Trace of Precipitation, MM = Missing Value Source: Averaged Metar Reports

Daily Weather History Graph

Daily Weather History Graph

Search for Another Location

Airport or City:

Trip Planner

Search our weather history database for the weather conditions in past years. The results will help you decide how hot, cold, wet, or windy it might be!

Date:

Astronomy

Mar. 26, 2013 Rise Set
Actual Time 6:17 AM +07 6:28 PM +07
Civil Twilight 5:56 AM +07 6:50 PM +07
Nautical Twilight 5:31 AM +07 7:15 PM +07
Astronomical Twilight 5:06 AM +07 7:40 PM +07
Moon 5:34 PM +07 (3/26) 5:08 AM +07 (3/26)
Length of Visible Light 12h 53m
Length of Day
12h 11m
Waxing Gibbous, 98% of the Moon is Illuminated
Mar 26
Waxing Gibbous
Mar 27
Full
Apr 3
Last Quarter
Apr 10
New
Apr 18
First Quarter

Hourly Weather History & Observations

Time (+07) Temp. Heat Index Dew Point Humidity Pressure Visibility Wind Dir Wind Speed Gust Speed Precip Events Conditions
12:00 AM 86.0 °F 96.9 °F 77.0 °F 74% 29.74 in 6.2 mi SSW 5.8 mph - N/A   Scattered Clouds
12:30 AM 86.0 °F 96.9 °F 77.0 °F 74% 29.71 in 6.2 mi SSW 5.8 mph - N/A   Scattered Clouds
1:00 AM 86 °F - 77 °F 67% 29.72 in 6 mi SSW 4.6 mph - -   Scattered Clouds
1:00 AM 86.0 °F 96.9 °F 77.0 °F 74% 29.71 in 6.2 mi SSW 4.6 mph - N/A   Scattered Clouds
1:30 AM 86.0 °F 96.9 °F 77.0 °F 74% 29.71 in 6.2 mi SW 4.6 mph - N/A   Scattered Clouds
2:00 AM 86.0 °F 96.9 °F 77.0 °F 74% 29.68 in 6.2 mi SSW 5.8 mph - N/A   Scattered Clouds
2:30 AM 84.2 °F 94.1 °F 77.0 °F 79% 29.68 in 6.2 mi SSW 6.9 mph - N/A   Scattered Clouds
3:00 AM 84.2 °F 94.1 °F 77.0 °F 79% 29.68 in 6.2 mi SSW 5.8 mph - N/A   Scattered Clouds
3:30 AM 84.2 °F 94.1 °F 77.0 °F 79% 29.68 in 6.2 mi South 4.6 mph - N/A   Scattered Clouds
4:00 AM 84.2 °F 96.1 °F 78.8 °F 84% 29.68 in 6.2 mi South 6.9 mph - N/A   Scattered Clouds
4:30 AM 84.2 °F 96.1 °F 78.8 °F 84% 29.68 in 6.2 mi SSE 3.5 mph - N/A   Scattered Clouds
5:00 AM 84.2 °F 96.1 °F 78.8 °F 84% 29.68 in 6.2 mi SSE 3.5 mph - N/A   Scattered Clouds
5:30 AM 84.2 °F 96.1 °F 78.8 °F 84% 29.68 in 6.2 mi ESE 3.5 mph - N/A   Scattered Clouds
6:00 AM 82.4 °F 92.4 °F 78.8 °F 89% 29.71 in 5.0 mi ESE 3.5 mph - N/A   Mostly Cloudy
6:30 AM 82.4 °F 92.4 °F 78.8 °F 89% 29.71 in 5.0 mi SE 3.5 mph - N/A   Mostly Cloudy
7:00 AM 83 °F - 79 °F 84% 29.75 in 5 mi ESE 3.5 mph - -   Mist
7:00 AM 82.4 °F 92.4 °F 78.8 °F 89% 29.74 in 5.0 mi ESE 3.5 mph - N/A   Mostly Cloudy
7:30 AM 84.2 °F 96.1 °F 78.8 °F 84% 29.74 in 5.0 mi ESE 3.5 mph - N/A   Mostly Cloudy
8:00 AM 84.2 °F 96.1 °F 78.8 °F 84% 29.77 in 5.6 mi SE 3.5 mph - N/A   Mostly Cloudy
8:30 AM 87.8 °F 104.9 °F 80.6 °F 79% 29.77 in 5.6 mi SSE 2.3 mph - N/A   Mostly Cloudy
9:00 AM 87.8 °F 102.5 °F 78.8 °F 75% 29.80 in 5.6 mi WSW 4.6 mph - N/A   Mostly Cloudy
9:30 AM 91.4 °F 100.1 °F 73.4 °F 55% 29.80 in 5.6 mi West 4.6 mph - N/A   Mostly Cloudy
10:00 AM 91.4 °F 98.4 °F 71.6 °F 52% 29.80 in 5.6 mi West 5.8 mph - N/A   Mostly Cloudy
10:30 AM 93.2 °F 98.8 °F 69.8 °F 46% 29.80 in 5.6 mi West 9.2 mph - N/A   Mostly Cloudy
11:00 AM 93.2 °F 97.7 °F 68.0 °F 44% 29.80 in 5.6 mi West 5.8 mph - N/A   Mostly Cloudy
11:30 AM 95.0 °F 97.0 °F 64.4 °F 36% 29.80 in 6.2 mi North 4.6 mph - N/A   Mostly Cloudy
12:00 PM 96.8 °F 99.0 °F 64.4 °F 34% 29.77 in 6.2 mi North 8.1 mph - N/A   Mostly Cloudy
12:30 PM 98.6 °F 98.5 °F 59.0 °F 27% 29.77 in 6.2 mi NNE 2.3 mph - N/A   Mostly Cloudy
1:00 PM 99 °F - 59 °F 18% 29.76 in 6 mi NNW 5.8 mph - -   Scattered Clouds
1:00 PM 98.6 °F 98.5 °F 59.0 °F 27% 29.74 in 6.2 mi NNW 5.8 mph - N/A   Mostly Cloudy
1:30 PM 100.4 °F 99.7 °F 57.2 °F 24% 29.74 in 6.2 mi West 3.5 mph - N/A   Mostly Cloudy
2:00 PM 102.2 °F 100.9 °F 55.4 °F 21% 29.71 in 6.2 mi NNW 9.2 mph - N/A   Mostly Cloudy
2:30 PM 102.2 °F 100.9 °F 55.4 °F 21% 29.71 in 6.2 mi WNW 13.8 mph - N/A   Mostly Cloudy
3:00 PM 104.0 °F 102.3 °F 53.6 °F 19% 29.68 in 6.2 mi NW 8.1 mph - N/A   Mostly Cloudy
3:30 PM 102.2 °F 100.9 °F 55.4 °F 21% 29.65 in 6.2 mi Calm Calm - N/A   Mostly Cloudy
4:00 PM 102.2 °F 100.4 °F 53.6 °F 20% 29.65 in 6.2 mi NNW 11.5 mph - N/A   Mostly Cloudy
4:30 PM 100.4 °F 99.7 °F 57.2 °F 24% 29.65 in 6.2 mi West 4.6 mph - N/A   Mostly Cloudy
5:00 PM 100.4 °F 100.2 °F 59.0 °F 25% 29.65 in 6.2 mi NNW 4.6 mph - N/A   Scattered Clouds
5:30 PM 100.4 °F 101.3 °F 60.8 °F 27% 29.65 in 6.2 mi NNE 8.1 mph - N/A   Scattered Clouds
6:00 PM 100.4 °F 101.3 °F 60.8 °F 27% 29.65 in 6.2 mi ESE 3.5 mph - N/A   Scattered Clouds
6:30 PM 98.6 °F 99.4 °F 60.8 °F 29% 29.68 in 6.2 mi South 10.4 mph - N/A   Scattered Clouds
7:00 PM 96 °F - 67 °F 29% 29.69 in 6 mi SSW 6.9 mph - -   Scattered Clouds
7:00 PM 95.0 °F 98.5 °F 66.2 °F 39% 29.68 in 6.2 mi SSW 6.9 mph - N/A   Mostly Cloudy
7:30 PM 91.4 °F 96.8 °F 69.8 °F 49% 29.68 in 6.2 mi SSW 8.1 mph - N/A   Mostly Cloudy
8:00 PM 91.4 °F 96.8 °F 69.8 °F 49% 29.71 in 6.2 mi SSW 9.2 mph - N/A   Mostly Cloudy
8:30 PM 89.6 °F 98.2 °F 73.4 °F 59% 29.71 in 6.2 mi SSW 10.4 mph - N/A   Mostly Cloudy
9:00 PM 89.6 °F 99.8 °F 75.2 °F 62% 29.74 in 6.2 mi SSW 15.0 mph - N/A   Mostly Cloudy
9:30 PM 89.6 °F 99.8 °F 75.2 °F 62% 29.74 in 6.2 mi SSW 11.5 mph - N/A   Scattered Clouds
10:00 PM 87.8 °F 99.7 °F 77.0 °F 70% 29.74 in 6.2 mi SSW 10.4 mph - N/A   Scattered Clouds
10:30 PM 87.8 °F 99.7 °F 77.0 °F 70% 29.77 in 6.2 mi SW 12.7 mph - N/A   Scattered Clouds
11:00 PM 87.8 °F 99.7 °F 77.0 °F 70% 29.77 in 6.2 mi SSW 11.5 mph - N/A   Scattered Clouds
11:30 PM 86.0 °F 96.9 °F 77.0 °F 74% 29.77 in 6.2 mi SW 9.2 mph - N/A   Scattered Clouds